| time (UTC) | temp F | wind direction | speed MPH | gust MPH | rain 1hr in | rain 24hr in | rain mn in | humidity % | barometer mb |
| 20260904151810 | 87 | 153 | 3.0 | 6.0 | 0.00 | 0.00 | 0.00 | 71 | 1016.8 |
| 20260904151309 | 86 | 224 | 5.0 | 6.0 | 0.00 | 0.00 | 0.00 | 71 | 1016.6 |
| 20260904150805 | 86 | 197 | 6.0 | 7.0 | 0.00 | 0.00 | 0.00 | 73 | 1016.8 |
| 20260904150300 | 85 | 219 | 5.0 | 7.0 | 0.00 | 0.00 | 0.00 | 74 | 1016.6 |
| 20260904145758 | 85 | 197 | 8.0 | 9.0 | 0.00 | 0.00 | 0.00 | 76 | 1016.7 |
| 20260904145254 | 85 | 200 | 11.0 | 11.0 | 0.00 | 0.00 | 0.00 | 76 | 1016.8 |
| 20260904144749 | 84 | 185 | 5.0 | 7.0 | 0.00 | 0.00 | 0.00 | 76 | 1016.7 |
| 20260904144245 | 85 | 168 | 7.0 | 9.0 | 0.00 | 0.00 | 0.00 | 76 | 1016.8 |
| 20260904143740 | 84 | 215 | 9.0 | 11.0 | 0.00 | 0.00 | 0.00 | 78 | 1016.9 |
| 20260904143237 | 84 | 205 | 8.0 | 9.0 | 0.00 | 0.00 | 0.00 | 79 | 1016.9 |
| 20260904142733 | 84 | 156 | 5.0 | 6.0 | 0.00 | 0.00 | 0.00 | 79 | 1016.9 |
| 20260904142229 | 84 | 195 | 7.0 | 8.0 | 0.00 | 0.00 | 0.00 | 80 | 1016.8 |
| 20260904141728 | 83 | 159 | 6.0 | 7.0 | 0.00 | 0.00 | 0.00 | 81 | 1016.6 |
| 20260904141224 | 83 | 180 | 6.0 | 6.0 | 0.00 | 0.00 | 0.00 | 82 | 1016.7 |
| 20260904140719 | 82 | 177 | 6.0 | 8.0 | 0.00 | 0.00 | 0.00 | 83 | 1016.5 |
| 20260904140215 | 82 | 212 | 7.0 | 9.0 | 0.00 | 0.00 | 0.00 | 83 | 1016.7 |
| 20260904135713 | 81 | 144 | 6.0 | 8.0 | 0.00 | 0.00 | 0.00 | 84 | 1016.6 |
| 20260904135209 | 81 | 169 | 8.0 | 9.0 | 0.00 | 0.00 | 0.00 | 84 | 1016.8 |
| 20260904134705 | 81 | 155 | 8.0 | 8.0 | 0.00 | 0.00 | 0.00 | 85 | 1016.6 |
| 20260904134204 | 80 | 172 | 5.0 | 6.0 | 0.00 | 0.00 | 0.00 | 85 | 1016.3 |
| 20260904133659 | 80 | 149 | 4.0 | 5.0 | 0.00 | 0.00 | 0.00 | 86 | 1016.6 |
| 20260904133156 | 80 | 148 | 8.0 | 8.0 | 0.00 | 0.00 | 0.00 | 86 | 1016.3 |
| 20260904132654 | 79 | 152 | 5.0 | 6.0 | 0.00 | 0.00 | 0.00 | 87 | 1016.6 |
| 20260904132150 | 79 | 129 | 5.0 | 6.0 | 0.00 | 0.00 | 0.00 | 88 | 1016.2 |
| 20260904131649 | 78 | 161 | 4.0 | 5.0 | 0.00 | 0.00 | 0.00 | 88 | 1016.5 |
| 20260904131144 | 78 | 101 | 2.0 | 2.0 | 0.00 | 0.00 | 0.00 | 89 | 1016.3 |
| 20260904130639 | 77 | 110 | 3.0 | 3.0 | 0.00 | 0.00 | 0.00 | 89 | 1016.3 |
| 20260904130138 | 77 | 113 | 3.0 | 3.0 | 0.00 | 0.00 | 0.00 | 90 | 1016.2 |
| 20260904125635 | 77 | 101 | 1.0 | 2.0 | 0.00 | 0.00 | 0.00 | 90 | 1016.2 |
| 20260904125130 | 77 | 95 | 1.0 | 1.0 | 0.00 | 0.00 | 0.00 | 91 | 1016.1 |
| 20260904124625 | 77 | 112 | 3.0 | 3.0 | 0.00 | 0.00 | 0.00 | 91 | 1016.2 |
| 20260904124120 | 77 | 102 | 1.0 | 1.0 | 0.00 | 0.00 | 0.00 | 92 | 1016.0 |
| 20260904123615 | 76 | 130 | 2.0 | 2.0 | 0.00 | 0.00 | 0.00 | 93 | 1015.9 |
| 20260904123111 | 76 | 131 | 3.0 | 3.0 | 0.00 | 0.00 | 0.00 | 93 | 1016.0 |
| 20260904122606 | 76 | 126 | 3.0 | 3.0 | 0.00 | 0.00 | 0.00 | 93 | 1016.3 |
| 20260904122100 | 76 | 110 | 3.0 | 3.0 | 0.00 | 0.00 | 0.00 | 93 | 1016.0 |
| 20260904121556 | 76 | 144 | 3.0 | 3.0 | 0.00 | 0.00 | 0.00 | 93 | 1016.0 |
| 20260904121051 | 76 | 154 | 4.0 | 5.0 | 0.00 | 0.00 | 0.00 | 93 | 1016.0 |
| 20260904120548 | 76 | 156 | 2.0 | 2.0 | 0.00 | 0.00 | 0.00 | 92 | 1016.0 |
| 20260904120043 | 76 | 147 | 3.0 | 5.0 | 0.00 | 0.00 | 0.00 | 92 | 1015.9 |
| 20260904115538 | 76 | 149 | 3.0 | 3.0 | 0.00 | 0.00 | 0.00 | 92 | 1015.9 |
| 20260904115033 | 76 | 134 | 2.0 | 2.0 | 0.00 | 0.00 | 0.00 | 92 | 1016.1 |
| 20260904114528 | 76 | 123 | 2.0 | 2.0 | 0.00 | 0.00 | 0.00 | 92 | 1015.8 |
| 20260904114028 | 76 | 153 | 3.0 | 3.0 | 0.00 | 0.00 | 0.00 | 92 | 1015.8 |
| 20260904113527 | 76 | 164 | 3.0 | 3.0 | 0.00 | 0.00 | 0.00 | 92 | 1015.6 |
| 20260904113027 | 76 | 138 | 2.0 | 2.0 | 0.00 | 0.00 | 0.00 | 91 | 1015.6 |
| 20260904112522 | 76 | 182 | 4.0 | 5.0 | 0.00 | 0.00 | 0.00 | 91 | 1015.6 |
| 20260904112018 | 76 | 158 | 5.0 | 5.0 | 0.00 | 0.00 | 0.00 | 91 | 1015.7 |
| 20260904111514 | 76 | 155 | 4.0 | 5.0 | 0.00 | 0.00 | 0.00 | 91 | 1015.5 |
| 20260904111009 | 76 | 124 | 4.0 | 6.0 | 0.00 | 0.00 | 0.00 | 91 | 1015.8 |
| 20260904110508 | 76 | 138 | 4.0 | 6.0 | 0.00 | 0.00 | 0.00 | 91 | 1015.6 |
| 20260904110003 | 76 | 159 | 4.0 | 5.0 | 0.00 | 0.00 | 0.00 | 91 | 1015.4 |
| 20260904105458 | 76 | 141 | 4.0 | 5.0 | 0.00 | 0.00 | 0.00 | 90 | 1015.6 |
| 20260904104954 | 76 | 137 | 3.0 | 3.0 | 0.00 | 0.00 | 0.00 | 90 | 1015.4 |
| 20260904104449 | 76 | 140 | 4.0 | 5.0 | 0.00 | 0.00 | 0.00 | 90 | 1015.6 |
| 20260904103944 | 76 | 134 | 4.0 | 5.0 | 0.00 | 0.00 | 0.00 | 90 | 1015.4 |
| 20260904103440 | 76 | 145 | 4.0 | 5.0 | 0.00 | 0.00 | 0.00 | 90 | 1015.3 |
| 20260904102936 | 76 | 158 | 3.0 | 3.0 | 0.00 | 0.00 | 0.00 | 89 | 1015.5 |
| 20260904102432 | 76 | 151 | 6.0 | 8.0 | 0.00 | 0.00 | 0.00 | 89 | 1015.2 |
| 20260904101927 | 76 | 156 | 3.0 | 5.0 | 0.00 | 0.00 | 0.00 | 89 | 1015.4 |
| 20260904101424 | 76 | 139 | 3.0 | 3.0 | 0.00 | 0.00 | 0.00 | 89 | 1015.2 |
| 20260904100919 | 76 | 137 | 2.0 | 2.0 | 0.00 | 0.00 | 0.00 | 89 | 1015.2 |
| 20260904100415 | 76 | 166 | 3.0 | 3.0 | 0.00 | 0.00 | 0.00 | 88 | 1015.5 |
| 20260904095909 | 76 | 156 | 3.0 | 3.0 | 0.00 | 0.00 | 0.00 | 89 | 1015.3 |
| 20260904095404 | 76 | 151 | 2.0 | 2.0 | 0.00 | 0.00 | 0.00 | 88 | 1015.1 |
| 20260904094859 | 76 | 202 | 3.0 | 5.0 | 0.00 | 0.00 | 0.00 | 88 | 1015.4 |
| 20260904094354 | 76 | 147 | 4.0 | 5.0 | 0.00 | 0.00 | 0.00 | 88 | 1015.4 |
| 20260904093850 | 76 | 152 | 3.0 | 3.0 | 0.00 | 0.00 | 0.00 | 88 | 1015.0 |
| 20260904093349 | 76 | 144 | 2.0 | 2.0 | 0.00 | 0.00 | 0.00 | 88 | 1015.1 |
| 20260904092845 | 75 | 154 | 2.0 | 2.0 | 0.00 | 0.00 | 0.00 | 88 | 1015.1 |
| 20260904092342 | 75 | 147 | 3.0 | 3.0 | 0.00 | 0.00 | 0.00 | 88 | 1015.1 |
| 20260904091838 | 75 | 166 | 3.0 | 3.0 | 0.00 | 0.00 | 0.00 | 88 | 1015.1 |
| 20260904091333 | 75 | 155 | 2.0 | 3.0 | 0.00 | 0.00 | 0.00 | 88 | 1015.2 |
| 20260904090827 | 75 | 135 | 2.0 | 2.0 | 0.00 | 0.00 | 0.00 | 88 | 1015.2 |
| 20260904090324 | 75 | 173 | 2.0 | 2.0 | 0.00 | 0.00 | 0.00 | 88 | 1015.2 |
| 20260904085818 | 75 | 173 | 2.0 | 2.0 | 0.00 | 0.00 | 0.00 | 87 | 1015.2 |
| 20260904085314 | 75 | 174 | 2.0 | 2.0 | 0.00 | 0.00 | 0.00 | 87 | 1014.9 |
| 20260904084808 | 75 | 174 | 1.0 | 1.0 | 0.00 | 0.00 | 0.00 | 87 | 1015.2 |
| 20260904084304 | 75 | 174 | 1.0 | 1.0 | 0.00 | 0.00 | 0.00 | 87 | 1015.1 |
| 20260904083800 | 75 | 174 | 1.0 | 1.0 | 0.00 | 0.00 | 0.00 | 86 | 1015.0 |
| 20260904083256 | 75 | 174 | 1.0 | 1.0 | 0.00 | 0.00 | 0.00 | 86 | 1015.1 |
| 20260904082751 | 75 | 174 | 2.0 | 2.0 | 0.00 | 0.00 | 0.00 | 86 | 1015.1 |
| 20260904082245 | 75 | 174 | 1.0 | 1.0 | 0.00 | 0.00 | 0.00 | 86 | 1014.9 |
| 20260904081740 | 75 | 174 | 1.0 | 1.0 | 0.00 | 0.00 | 0.00 | 86 | 1015.1 |
| 20260904081231 | 75 | 174 | 2.0 | 2.0 | 0.00 | 0.00 | 0.00 | 86 | 1014.9 |
| 20260904080726 | 75 | 174 | 1.0 | 2.0 | 0.00 | 0.00 | 0.00 | 86 | 1015.1 |
| 20260904080222 | 74 | 175 | 1.0 | 2.0 | 0.00 | 0.00 | 0.00 | 87 | 1015.0 |
| 20260904075718 | 74 | 175 | 0.0 | 0.0 | 0.00 | 0.00 | 0.00 | 87 | 1015.0 |
| 20260904075213 | 74 | 175 | 0.0 | 0.0 | 0.00 | 0.00 | 0.00 | 86 | 1015.1 |
| 20260904074712 | 74 | 174 | 0.0 | 0.0 | 0.00 | 0.00 | 0.00 | 86 | 1015.1 |
| 20260904074206 | 74 | 174 | 0.0 | 0.0 | 0.00 | 0.00 | 0.00 | 86 | 1015.1 |
| 20260904073702 | 75 | 174 | 0.0 | 1.0 | 0.00 | 0.00 | 0.00 | 86 | 1015.1 |
| 20260904073158 | 75 | 174 | 0.0 | 1.0 | 0.00 | 0.00 | 0.00 | 86 | 1014.9 |
| 20260904072653 | 75 | 174 | 1.0 | 1.0 | 0.00 | 0.00 | 0.00 | 85 | 1015.1 |
| 20260904072148 | 75 | 175 | 0.0 | 0.0 | 0.00 | 0.00 | 0.00 | 85 | 1015.1 |
| 20260904071644 | 75 | 175 | 0.0 | 0.0 | 0.00 | 0.00 | 0.00 | 84 | 1015.1 |
| 20260904071139 | 75 | 175 | 0.0 | 0.0 | 0.00 | 0.00 | 0.00 | 84 | 1014.9 |
| 20260904070638 | 75 | 175 | 0.0 | 1.0 | 0.00 | 0.00 | 0.00 | 84 | 1014.9 |
| 20260904070132 | 75 | 175 | 1.0 | 1.0 | 0.00 | 0.00 | 0.00 | 84 | 1014.9 |
| 20260904065632 | 75 | 176 | 2.0 | 2.0 | 0.00 | 0.00 | 0.00 | 85 | 1014.9 |
| 20260904065130 | 75 | 176 | 1.0 | 1.0 | 0.00 | 0.00 | 0.00 | 84 | 1015.3 |
| 20260904064625 | 75 | 176 | 0.0 | 0.0 | 0.00 | 0.00 | 0.00 | 84 | 1015.4 |
| 20260904064125 | 76 | 175 | 0.0 | 0.0 | 0.00 | 0.00 | 0.00 | 84 | 1015.4 |
| 20260904063621 | 75 | 175 | 0.0 | 1.0 | 0.00 | 0.00 | 0.00 | 84 | 1015.4 |
| 20260904063116 | 75 | 175 | 1.0 | 1.0 | 0.00 | 0.00 | 0.00 | 83 | 1015.4 |
| 20260904062612 | 75 | 176 | 1.0 | 2.0 | 0.00 | 0.00 | 0.00 | 83 | 1015.4 |
| 20260904062107 | 75 | 176 | 1.0 | 1.0 | 0.00 | 0.00 | 0.00 | 84 | 1015.3 |
| 20260904061603 | 76 | 176 | 0.0 | 0.0 | 0.00 | 0.00 | 0.00 | 83 | 1015.1 |
| 20260904061059 | 76 | 176 | 0.0 | 0.0 | 0.00 | 0.00 | 0.00 | 83 | 1015.2 |
| 20260904060555 | 76 | 175 | 2.0 | 2.0 | 0.00 | 0.00 | 0.00 | 83 | 1015.2 |
| 20260904060051 | 76 | 176 | 1.0 | 1.0 | 0.00 | 0.00 | 0.00 | 83 | 1015.1 |
| 20260904055546 | 76 | 176 | 0.0 | 0.0 | 0.00 | 0.00 | 0.00 | 83 | 1014.9 |
| 20260904055041 | 76 | 176 | 0.0 | 0.0 | 0.00 | 0.00 | 0.00 | 82 | 1015.1 |
| 20260904054537 | 77 | 176 | 0.0 | 0.0 | 0.00 | 0.00 | 0.00 | 81 | 1015.2 |
| 20260904054033 | 77 | 176 | 0.0 | 1.0 | 0.00 | 0.00 | 0.00 | 81 | 1015.5 |
| 20260904053532 | 77 | 176 | 1.0 | 1.0 | 0.00 | 0.00 | 0.00 | 81 | 1014.9 |
| 20260904053028 | 77 | 176 | 0.0 | 0.0 | 0.00 | 0.00 | 0.00 | 81 | 1015.1 |
| 20260904052524 | 77 | 176 | 1.0 | 1.0 | 0.00 | 0.00 | 0.00 | 81 | 1014.9 |
| 20260904052020 | 77 | 176 | 1.0 | 1.0 | 0.00 | 0.00 | 0.00 | 81 | 1015.0 |
| 20260904051516 | 77 | 177 | 1.0 | 1.0 | 0.00 | 0.00 | 0.00 | 80 | 1015.0 |
| 20260904051015 | 78 | 185 | 3.0 | 3.0 | 0.00 | 0.00 | 0.00 | 80 | 1015.0 |
| 20260904050512 | 78 | 198 | 2.0 | 2.0 | 0.00 | 0.00 | 0.00 | 79 | 1015.0 |
| 20260904050007 | 78 | 186 | 2.0 | 2.0 | 0.00 | 0.03 | 0.03 | 79 | 1015.1 |
| 20260904045502 | 78 | 190 | 4.0 | 5.0 | 0.00 | 0.03 | 0.03 | 78 | 1014.9 |
| 20260904044956 | 78 | 198 | 5.0 | 5.0 | 0.00 | 0.03 | 0.03 | 78 | 1014.8 |
| 20260904044453 | 78 | 192 | 3.0 | 3.0 | 0.00 | 0.03 | 0.03 | 78 | 1014.8 |
| 20260904043949 | 78 | 203 | 4.0 | 5.0 | 0.00 | 0.03 | 0.03 | 78 | 1014.9 |
| 20260904043445 | 79 | 191 | 4.0 | 5.0 | 0.00 | 0.03 | 0.03 | 78 | 1014.9 |
| 20260904042941 | 79 | 182 | 3.0 | 3.0 | 0.00 | 0.03 | 0.03 | 78 | 1015.1 |
| 20260904042437 | 79 | 196 | 5.0 | 6.0 | 0.00 | 0.03 | 0.03 | 78 | 1014.9 |
| 20260904041931 | 79 | 183 | 3.0 | 3.0 | 0.00 | 0.03 | 0.03 | 78 | 1014.9 |
| 20260904041428 | 79 | 178 | 4.0 | 5.0 | 0.00 | 0.03 | 0.03 | 78 | 1014.9 |
| 20260904040924 | 79 | 190 | 4.0 | 5.0 | 0.00 | 0.03 | 0.03 | 78 | 1014.9 |
| 20260904040423 | 79 | 189 | 4.0 | 5.0 | 0.00 | 0.03 | 0.03 | 78 | 1014.9 |
| 20260904035920 | 79 | 196 | 4.0 | 5.0 | 0.00 | 0.03 | 0.03 | 78 | 1015.2 |
| 20260904035415 | 79 | 190 | 5.0 | 6.0 | 0.00 | 0.03 | 0.03 | 79 | 1015.1 |
| 20260904034914 | 80 | 182 | 4.0 | 5.0 | 0.00 | 0.03 | 0.03 | 78 | 1015.1 |
| 20260904034409 | 80 | 191 | 4.0 | 5.0 | 0.00 | 0.03 | 0.03 | 78 | 1015.0 |
| 20260904033905 | 80 | 200 | 3.0 | 5.0 | 0.00 | 0.03 | 0.03 | 78 | 1015.3 |
| 20260904033401 | 80 | 193 | 4.0 | 5.0 | 0.00 | 0.03 | 0.03 | 78 | 1015.2 |
| 20260904032857 | 80 | 185 | 3.0 | 3.0 | 0.00 | 0.03 | 0.03 | 77 | 1015.2 |
| 20260904032352 | 81 | 196 | 4.0 | 7.0 | 0.00 | 0.03 | 0.03 | 77 | 1015.2 |
| 20260904031846 | 81 | 208 | 5.0 | 7.0 | 0.00 | 0.03 | 0.03 | 76 | 1015.4 |
| 20260904031342 | 81 | 203 | 6.0 | 7.0 | 0.00 | 0.03 | 0.03 | 76 | 1015.1 |
| 20260904030838 | 81 | 207 | 6.0 | 8.0 | 0.00 | 0.03 | 0.03 | 76 | 1015.0 |
| 20260904030333 | 81 | 199 | 5.0 | 6.0 | 0.00 | 0.03 | 0.03 | 76 | 1014.9 |
| 20260904025829 | 81 | 179 | 3.0 | 5.0 | 0.00 | 0.03 | 0.03 | 77 | 1014.9 |
| 20260904025325 | 81 | 178 | 3.0 | 3.0 | 0.00 | 0.03 | 0.03 | 76 | 1015.0 |
| 20260904024824 | 81 | 182 | 3.0 | 3.0 | 0.00 | 0.03 | 0.03 | 76 | 1014.9 |
| 20260904024319 | 81 | 190 | 3.0 | 3.0 | 0.00 | 0.03 | 0.03 | 76 | 1014.9 |
| 20260904023816 | 81 | 145 | 3.0 | 3.0 | 0.00 | 0.03 | 0.03 | 76 | 1014.7 |
| 20260904023312 | 81 | 173 | 3.0 | 3.0 | 0.00 | 0.03 | 0.03 | 76 | 1014.6 |
| 20260904022811 | 81 | 146 | 2.0 | 2.0 | 0.00 | 0.03 | 0.03 | 76 | 1014.5 |
| 20260904022308 | 81 | 155 | 2.0 | 2.0 | 0.00 | 0.03 | 0.03 | 76 | 1014.4 |
| 20260904021804 | 82 | 148 | 2.0 | 2.0 | 0.00 | 0.03 | 0.03 | 75 | 1014.5 |
| 20260904021259 | 82 | 145 | 2.0 | 2.0 | 0.00 | 0.03 | 0.03 | 75 | 1014.3 |
| 20260904020754 | 82 | 152 | 1.0 | 2.0 | 0.00 | 0.03 | 0.03 | 75 | 1014.2 |
| 20260904020254 | 82 | 173 | 2.0 | 2.0 | 0.00 | 0.03 | 0.03 | 75 | 1014.1 |
| 20260904015753 | 82 | 167 | 3.0 | 3.0 | 0.00 | 0.03 | 0.03 | 75 | 1014.0 |
| 20260904015248 | 82 | 148 | 2.0 | 2.0 | 0.00 | 0.03 | 0.03 | 75 | 1013.9 |
| 20260904014746 | 82 | 166 | 2.0 | 2.0 | 0.00 | 0.03 | 0.03 | 75 | 1014.0 |
| 20260904014242 | 82 | 166 | 1.0 | 1.0 | 0.00 | 0.03 | 0.03 | 75 | 1014.0 |
| 20260904013738 | 82 | 166 | 1.0 | 1.0 | 0.00 | 0.03 | 0.03 | 74 | 1013.9 |
| 20260904013234 | 83 | 166 | 1.0 | 1.0 | 0.00 | 0.03 | 0.03 | 73 | 1013.7 |
| 20260904012729 | 83 | 166 | 1.0 | 1.0 | 0.00 | 0.03 | 0.03 | 73 | 1013.8 |
| 20260904012229 | 83 | 166 | 1.0 | 1.0 | 0.00 | 0.03 | 0.03 | 72 | 1013.7 |
| 20260904011728 | 83 | 166 | 1.0 | 1.0 | 0.00 | 0.03 | 0.03 | 72 | 1013.5 |
| 20260904011224 | 84 | 159 | 1.0 | 1.0 | 0.00 | 0.03 | 0.03 | 71 | 1013.3 |
| 20260904010718 | 84 | 160 | 1.0 | 2.0 | 0.00 | 0.03 | 0.03 | 71 | 1013.4 |
| 20260904010215 | 84 | 172 | 3.0 | 3.0 | 0.00 | 0.03 | 0.03 | 70 | 1013.3 |
| 20260904005710 | 84 | 148 | 2.0 | 2.0 | 0.00 | 0.03 | 0.03 | 70 | 1013.3 |
| 20260904005206 | 84 | 166 | 4.0 | 5.0 | 0.00 | 0.03 | 0.03 | 69 | 1013.5 |
| 20260904004701 | 84 | 137 | 2.0 | 3.0 | 0.00 | 0.03 | 0.03 | 69 | 1013.5 |
| 20260904004200 | 85 | 141 | 1.0 | 1.0 | 0.00 | 0.03 | 0.03 | 68 | 1013.5 |
| 20260904003651 | 85 | 160 | 3.0 | 3.0 | 0.00 | 0.03 | 0.03 | 67 | 1013.4 |
| 20260904003147 | 85 | 176 | 3.0 | 3.0 | 0.00 | 0.03 | 0.03 | 67 | 1013.6 |
| 20260904002642 | 86 | 139 | 4.0 | 5.0 | 0.00 | 0.03 | 0.03 | 66 | 1013.4 |
| 20260904002138 | 86 | 114 | 6.0 | 7.0 | 0.00 | 0.03 | 0.03 | 65 | 1013.4 |
| 20260904001633 | 86 | 142 | 6.0 | 7.0 | 0.00 | 0.03 | 0.03 | 65 | 1013.3 |
| 20260904001132 | 86 | 165 | 6.0 | 7.0 | 0.00 | 0.03 | 0.03 | 64 | 1013.3 |
| 20260904000627 | 87 | 169 | 6.0 | 7.0 | 0.00 | 0.03 | 0.03 | 63 | 1013.4 |
| 20260904000123 | 87 | 133 | 8.0 | 8.0 | 0.00 | 0.03 | 0.03 | 63 | 1013.4 |
| 20260903235622 | 87 | 123 | 6.0 | 8.0 | 0.00 | 0.03 | 0.03 | 64 | 1013.3 |
| 20260903235118 | 87 | 159 | 8.0 | 9.0 | 0.00 | 0.03 | 0.03 | 63 | 1013.4 |
| 20260903234613 | 87 | 182 | 7.0 | 9.0 | 0.00 | 0.03 | 0.03 | 63 | 1013.6 |
| 20260903234109 | 87 | 139 | 7.0 | 8.0 | 0.00 | 0.03 | 0.03 | 62 | 1013.5 |
| 20260903233605 | 87 | 164 | 7.0 | 7.0 | 0.00 | 0.03 | 0.03 | 62 | 1013.4 |
| 20260903233101 | 87 | 171 | 11.0 | 14.0 | 0.00 | 0.03 | 0.03 | 61 | 1013.2 |
| 20260903232555 | 87 | 176 | 9.0 | 10.0 | 0.00 | 0.03 | 0.03 | 61 | 1013.5 |
| 20260903232050 | 88 | 174 | 9.0 | 13.0 | 0.00 | 0.03 | 0.03 | 59 | 1013.2 |
| 20260903231545 | 88 | 129 | 9.0 | 11.0 | 0.00 | 0.03 | 0.03 | 60 | 1013.4 |
| 20260903231039 | 88 | 136 | 5.0 | 7.0 | 0.00 | 0.03 | 0.03 | 62 | 1013.1 |
| 20260903230535 | 88 | 129 | 9.0 | 10.0 | 0.00 | 0.03 | 0.03 | 61 | 1013.2 |
| 20260903230028 | 88 | 125 | 4.0 | 5.0 | 0.00 | 0.03 | 0.03 | 63 | 1013.2 |
| 20260903225526 | 88 | 140 | 7.0 | 8.0 | 0.00 | 0.03 | 0.03 | 63 | 1013.2 |
| 20260903225022 | 88 | 119 | 4.0 | 6.0 | 0.00 | 0.03 | 0.03 | 63 | 1013.3 |
| 20260903224517 | 88 | 143 | 8.0 | 9.0 | 0.00 | 0.03 | 0.03 | 63 | 1013.4 |
| 20260903224014 | 88 | 112 | 8.0 | 9.0 | 0.00 | 0.03 | 0.03 | 63 | 1013.3 |
| 20260903223512 | 87 | 115 | 8.0 | 10.0 | 0.00 | 0.03 | 0.03 | 64 | 1013.4 |
| 20260903223012 | 86 | 162 | 5.0 | 7.0 | 0.00 | 0.03 | 0.03 | 65 | 1013.5 |
| 20260903222507 | 86 | 140 | 4.0 | 6.0 | 0.00 | 0.03 | 0.03 | 66 | 1013.3 |
| 20260903222006 | 86 | 159 | 6.0 | 8.0 | 0.00 | 0.03 | 0.03 | 66 | 1013.5 |
| 20260903221501 | 86 | 142 | 7.0 | 8.0 | 0.00 | 0.03 | 0.03 | 65 | 1013.2 |
| 20260903220958 | 86 | 141 | 6.0 | 7.0 | 0.00 | 0.03 | 0.03 | 65 | 1013.4 |
| 20260903220453 | 86 | 106 | 5.0 | 7.0 | 0.00 | 0.03 | 0.03 | 65 | 1013.3 |
| 20260903215950 | 86 | 138 | 9.0 | 11.0 | 0.00 | 0.03 | 0.03 | 66 | 1013.5 |
| 20260903215447 | 86 | 132 | 5.0 | 7.0 | 0.00 | 0.03 | 0.03 | 66 | 1013.5 |
| 20260903214945 | 86 | 115 | 9.0 | 10.0 | 0.00 | 0.03 | 0.03 | 65 | 1013.6 |
| 20260903214441 | 87 | 125 | 6.0 | 7.0 | 0.00 | 0.03 | 0.03 | 64 | 1013.7 |
| 20260903213941 | 87 | 130 | 5.0 | 6.0 | 0.00 | 0.03 | 0.03 | 65 | 1013.7 |
| 20260903213436 | 87 | 165 | 7.0 | 8.0 | 0.00 | 0.03 | 0.03 | 66 | 1013.8 |
| 20260903212932 | 87 | 150 | 9.0 | 9.0 | 0.00 | 0.03 | 0.03 | 64 | 1013.7 |
| 20260903212427 | 87 | 127 | 8.0 | 9.0 | 0.00 | 0.03 | 0.03 | 63 | 1014.0 |
| 20260903211922 | 87 | 143 | 9.0 | 15.0 | 0.00 | 0.03 | 0.03 | 65 | 1014.0 |
| 20260903211418 | 87 | 150 | 5.0 | 7.0 | 0.00 | 0.03 | 0.03 | 66 | 1014.0 |
| 20260903210914 | 88 | 104 | 5.0 | 7.0 | 0.00 | 0.03 | 0.03 | 65 | 1013.9 |
| 20260903210413 | 89 | 139 | 9.0 | 10.0 | 0.00 | 0.03 | 0.03 | 64 | 1014.0 |
| 20260903205909 | 88 | 122 | 10.0 | 13.0 | 0.00 | 0.03 | 0.03 | 63 | 1013.9 |
| 20260903205408 | 88 | 147 | 8.0 | 10.0 | 0.00 | 0.03 | 0.03 | 64 | 1014.0 |
| 20260903204903 | 88 | 125 | 7.0 | 10.0 | 0.00 | 0.03 | 0.03 | 64 | 1014.1 |
| 20260903204359 | 87 | 161 | 8.0 | 9.0 | 0.00 | 0.03 | 0.03 | 65 | 1014.2 |
| 20260903203855 | 87 | 124 | 5.0 | 6.0 | 0.00 | 0.03 | 0.03 | 64 | 1014.3 |
| 20260903203350 | 87 | 135 | 4.0 | 5.0 | 0.00 | 0.03 | 0.03 | 65 | 1014.4 |
| 20260903202849 | 88 | 175 | 4.0 | 6.0 | 0.00 | 0.03 | 0.03 | 62 | 1014.4 |
| 20260903202345 | 87 | 205 | 8.0 | 10.0 | 0.00 | 0.03 | 0.03 | 66 | 1014.6 |
| 20260903201844 | 87 | 139 | 7.0 | 10.0 | 0.00 | 0.03 | 0.03 | 64 | 1014.5 |
| 20260903201335 | 87 | 169 | 9.0 | 10.0 | 0.00 | 0.03 | 0.03 | 64 | 1014.6 |
| 20260903200833 | 88 | 182 | 8.0 | 9.0 | 0.00 | 0.03 | 0.03 | 63 | 1014.7 |
| 20260903200328 | 88 | 133 | 8.0 | 9.0 | 0.00 | 0.03 | 0.03 | 64 | 1014.8 |
| 20260903195823 | 87 | 102 | 6.0 | 7.0 | 0.00 | 0.03 | 0.03 | 66 | 1014.7 |
| 20260903195320 | 86 | 188 | 9.0 | 10.0 | 0.00 | 0.03 | 0.03 | 67 | 1014.8 |
| 20260903194814 | 86 | 116 | 11.0 | 13.0 | 0.00 | 0.03 | 0.03 | 67 | 1014.5 |
| 20260903194310 | 87 | 158 | 7.0 | 9.0 | 0.00 | 0.03 | 0.03 | 65 | 1014.6 |
| 20260903193806 | 87 | 202 | 8.0 | 9.0 | 0.00 | 0.03 | 0.03 | 64 | 1014.8 |
| 20260903193302 | 87 | 185 | 4.0 | 7.0 | 0.00 | 0.03 | 0.03 | 67 | 1014.8 |
| 20260903192757 | 86 | 197 | 7.0 | 8.0 | 0.00 | 0.03 | 0.03 | 67 | 1015.0 |
| 20260903192253 | 86 | 189 | 8.0 | 10.0 | 0.00 | 0.03 | 0.03 | 68 | 1015.1 |
| 20260903191749 | 85 | 162 | 7.0 | 8.0 | 0.00 | 0.03 | 0.03 | 69 | 1015.2 |
| 20260903191245 | 85 | 188 | 10.0 | 11.0 | 0.00 | 0.03 | 0.03 | 71 | 1015.3 |
| 20260903190739 | 85 | 198 | 8.0 | 9.0 | 0.00 | 0.03 | 0.03 | 71 | 1015.3 |
| 20260903190238 | 83 | 168 | 8.0 | 10.0 | 0.00 | 0.03 | 0.03 | 73 | 1015.5 |
| 20260903185733 | 82 | 152 | 8.0 | 9.0 | 0.00 | 0.03 | 0.03 | 75 | 1015.6 |
| 20260903185228 | 82 | 149 | 11.0 | 14.0 | 0.00 | 0.03 | 0.03 | 76 | 1015.6 |
| 20260903184725 | 82 | 176 | 11.0 | 11.0 | 0.00 | 0.03 | 0.03 | 76 | 1015.9 |
| 20260903184221 | 81 | 177 | 7.0 | 8.0 | 0.00 | 0.03 | 0.03 | 77 | 1015.6 |
| 20260903183720 | 82 | 153 | 7.0 | 9.0 | 0.00 | 0.03 | 0.03 | 76 | 1015.9 |
| 20260903183215 | 82 | 152 | 10.0 | 13.0 | 0.00 | 0.03 | 0.03 | 75 | 1015.8 |
| 20260903182714 | 82 | 187 | 9.0 | 10.0 | 0.00 | 0.03 | 0.03 | 76 | 1015.7 |
| 20260903182209 | 81 | 162 | 12.0 | 15.0 | 0.00 | 0.03 | 0.03 | 77 | 1015.8 |
| 20260903181708 | 81 | 164 | 12.0 | 14.0 | 0.00 | 0.03 | 0.03 | 78 | 1016.1 |
| 20260903181203 | 81 | 183 | 11.0 | 14.0 | 0.00 | 0.03 | 0.03 | 77 | 1016.0 |
| 20260903180658 | 81 | 184 | 11.0 | 13.0 | 0.00 | 0.03 | 0.03 | 78 | 1016.1 |
| 20260903180157 | 81 | 154 | 9.0 | 11.0 | 0.00 | 0.03 | 0.03 | 80 | 1016.3 |
| 20260903175651 | 81 | 201 | 7.0 | 8.0 | 0.00 | 0.03 | 0.03 | 81 | 1016.2 |
| 20260903175151 | 80 | 163 | 8.0 | 11.0 | 0.00 | 0.03 | 0.03 | 82 | 1016.2 |
| 20260903174645 | 80 | 195 | 12.0 | 16.0 | 0.00 | 0.03 | 0.03 | 83 | 1016.3 |
| 20260903174141 | 80 | 192 | 8.0 | 10.0 | 0.00 | 0.03 | 0.03 | 84 | 1016.2 |
| 20260903173635 | 80 | 138 | 9.0 | 11.0 | 0.00 | 0.03 | 0.03 | 84 | 1016.3 |
| 20260903173132 | 79 | 173 | 9.0 | 10.0 | 0.00 | 0.03 | 0.03 | 84 | 1016.2 |
| 20260903172631 | 79 | 133 | 8.0 | 9.0 | 0.00 | 0.03 | 0.03 | 87 | 1016.2 |
| 20260903172126 | 78 | 130 | 9.0 | 10.0 | 0.00 | 0.03 | 0.03 | 87 | 1016.6 |
| 20260903171626 | 78 | 128 | 5.0 | 7.0 | 0.00 | 0.03 | 0.03 | 87 | 1016.6 |
| 20260903171123 | 80 | 136 | 6.0 | 7.0 | 0.00 | 0.03 | 0.03 | 84 | 1016.5 |
| 20260903170621 | 80 | 166 | 10.0 | 15.0 | 0.00 | 0.03 | 0.03 | 83 | 1016.3 |
| 20260903170117 | 79 | 179 | 9.0 | 10.0 | 0.00 | 0.03 | 0.03 | 85 | 1016.3 |
| 20260903165615 | 79 | 158 | 7.0 | 11.0 | 0.00 | 0.03 | 0.03 | 86 | 1016.3 |
| 20260903165110 | 79 | 148 | 8.0 | 9.0 | 0.00 | 0.03 | 0.03 | 86 | 1016.3 |
| 20260903164605 | 79 | 142 | 6.0 | 8.0 | 0.00 | 0.03 | 0.03 | 86 | 1016.6 |
| 20260903164101 | 79 | 160 | 8.0 | 10.0 | 0.00 | 0.03 | 0.03 | 86 | 1016.2 |
| 20260903163601 | 79 | 201 | 9.0 | 10.0 | 0.00 | 0.03 | 0.03 | 86 | 1016.5 |
| 20260903163057 | 79 | 151 | 8.0 | 9.0 | 0.00 | 0.03 | 0.03 | 85 | 1016.3 |
| 20260903162553 | 79 | 146 | 7.0 | 9.0 | 0.00 | 0.03 | 0.03 | 85 | 1016.3 |
| 20260903162048 | 80 | 174 | 8.0 | 10.0 | 0.00 | 0.03 | 0.03 | 84 | 1016.6 |
| 20260903161544 | 80 | 183 | 10.0 | 13.0 | 0.00 | 0.03 | 0.03 | 85 | 1016.3 |
| 20260903161039 | 80 | 175 | 12.0 | 14.0 | 0.00 | 0.03 | 0.03 | 84 | 1016.2 |
| 20260903160538 | 80 | 206 | 10.0 | 11.0 | 0.00 | 0.03 | 0.03 | 83 | 1016.3 |
| 20260903160033 | 79 | 151 | 8.0 | 10.0 | 0.00 | 0.03 | 0.03 | 87 | 1016.3 |
| 20260903155526 | 79 | 178 | 8.0 | 14.0 | 0.00 | 0.03 | 0.03 | 87 | 1016.1 |
| 20260903155022 | 78 | 186 | 6.0 | 8.0 | 0.00 | 0.03 | 0.03 | 89 | 1016.1 |
| 20260903154518 | 78 | 176 | 8.0 | 9.0 | 0.00 | 0.03 | 0.03 | 89 | 1016.3 |
| 20260903154014 | 78 | 151 | 9.0 | 10.0 | 0.00 | 0.03 | 0.03 | 90 | 1016.3 |
| 20260903153509 | 78 | 137 | 8.0 | 9.0 | 0.00 | 0.03 | 0.03 | 90 | 1016.2 |
| 20260903153005 | 78 | 170 | 6.0 | 8.0 | 0.00 | 0.03 | 0.03 | 90 | 1016.1 |
| 20260903152500 | 77 | 147 | 8.0 | 9.0 | 0.00 | 0.03 | 0.03 | 90 | 1016.3 |